Location: Newark
(12.4436°N, 0.6167°W)
Time: 07:08:55
(UTC+00:00)

Vanguard 1 - Pass Details

Date: 10 December 2019
Orbit: 651 x 3832 km, 34.2° (Epoch: 18 January)

Event Time Altitude Azimuth Distance (km) Brightness Sun altitude
Rises 22:24:07 0° 193° (SSW) 5,291 14.0 -65.9°
Reaches altitude 10° 22:28:42 10° 176° (S) 4,815 13.6 -66.9°
Enters shadow 22:28:48 10° 176° (S) 4,809 13.6 -66.9°
Maximum altitude 22:38:38 21° 133° (SE) 4,924 - -69.0°
Drops below altitude 10° 22:51:51 10° 93° (E) 6,636 - -71.6°
Sets 22:59:53 0° 80° (E) 7,921 - -73.1°
